HODOYOSHI-4
Last updated on Mon Jun 22 2026 00:02:51 GMT+0000 (Coordinated Universal Time)
1 40011U 14033B 26172.53914405 .00001346 00000+0 15121-3 0 9992
2 40011 97.5457 357.1508 0022176 293.0169 66.8709 14.88136903649459
Next 0 passes for location: London (51.5072 / 0.1276)
No passes found over London.